Time,TemperatureF,DewpointF,PressureIn,WindDirection,WindDirectionDegrees,WindSpeedMPH,WindSpeedGustMPH,Humidity,HourlyPrecipIn,Conditions,Clouds,dailyrainin,SoftwareType,DateUTC
2013-02-03 00:04:00,74.5,64.1,29.97,East,90,6.3,134.3,70,0.00,,---,0.00,VWS V14.01,2013-02-03 04:04:00,
2013-02-03 00:09:00,74.5,64.5,29.97,SSE,158,7.6,134.3,71,0.00,,---,0.00,VWS V14.01,2013-02-03 04:09:00,
2013-02-03 00:14:00,74.5,63.7,29.97,West,270,6.0,134.3,69,0.00,,---,0.00,VWS V14.01,2013-02-03 04:14:00,
2013-02-03 00:19:00,74.3,63.5,29.97,SE,135,6.3,134.3,69,0.00,,---,0.00,VWS V14.01,2013-02-03 04:19:00,
2013-02-03 00:24:00,74.5,64.1,29.96,South,180,4.0,134.3,70,0.00,,---,0.00,VWS V14.01,2013-02-03 04:24:00,
2013-02-03 00:30:00,74.5,64.1,29.96,SE,135,4.3,134.3,70,0.00,,---,0.00,VWS V14.01,2013-02-03 04:30:00,
2013-02-03 00:35:00,74.3,63.5,29.96,East,90,4.0,134.3,69,0.00,,---,0.00,VWS V14.01,2013-02-03 04:35:00,
2013-02-03 00:40:00,74.3,63.5,29.96,NE,45,5.4,134.3,69,0.00,,---,0.00,VWS V14.01,2013-02-03 04:40:00,
2013-02-03 00:45:00,74.3,63.9,29.96,SE,135,4.9,134.3,70,0.00,,---,0.00,VWS V14.01,2013-02-03 04:45:00,
2013-02-03 00:50:00,74.2,63.8,29.96,East,90,5.8,134.3,70,0.00,,---,0.00,VWS V14.01,2013-02-03 04:50:00,
2013-02-03 00:55:00,74.2,63.4,29.96,ESE,112,5.4,134.3,69,0.00,,---,0.00,VWS V14.01,2013-02-03 04:55:00,
2013-02-03 01:00:00,74.2,63.8,29.95,North,0,4.3,134.3,70,0.00,,---,0.00,VWS V14.01,2013-02-03 05:00:00,
2013-02-03 01:02:00,74.2,63.4,29.95,NNW,338,5.4,134.3,69,0.00,,---,0.00,VWS V14.01,2013-02-03 05:02:00,
2013-02-03 01:07:00,74.2,63.8,29.95,North,0,4.5,134.3,70,0.00,,---,0.00,VWS V14.01,2013-02-03 05:07:00,
2013-02-03 01:12:00,74.2,64.2,29.95,SSE,158,4.9,134.3,71,0.00,,---,0.00,VWS V14.01,2013-02-03 05:12:00,
2013-02-03 01:17:00,74.2,63.8,29.95,NE,45,6.3,134.3,70,0.00,,---,0.00,VWS V14.01,2013-02-03 05:17:00,
2013-02-03 01:22:00,74.2,63.4,29.95,SE,135,6.9,134.3,69,0.00,,---,0.00,VWS V14.01,2013-02-03 05:22:00,
2013-02-03 01:27:00,74.2,63.4,29.94,South,180,5.4,134.3,69,0.00,,---,0.00,VWS V14.01,2013-02-03 05:27:00,
2013-02-03 01:32:00,74.0,62.4,29.94,NE,45,2.7,134.3,67,0.00,,---,0.00,VWS V14.01,2013-02-03 05:32:00,
2013-02-03 01:37:00,74.2,63.4,29.94,South,180,4.0,134.3,69,0.00,,---,0.00,VWS V14.01,2013-02-03 05:37:00,
2013-02-03 01:42:00,74.0,63.2,29.94,East,90,2.2,134.3,69,0.00,,---,0.00,VWS V14.01,2013-02-03 05:42:00,
2013-02-03 01:47:00,74.0,63.6,29.94,SW,225,4.7,134.3,70,0.00,,---,0.00,VWS V14.01,2013-02-03 05:47:00,
2013-02-03 01:53:00,74.0,63.2,29.94,East,90,4.7,134.3,69,0.00,,---,0.00,VWS V14.01,2013-02-03 05:53:00,
2013-02-03 01:58:00,74.0,63.2,29.94,SE,135,5.1,134.3,69,0.00,,---,0.00,VWS V14.01,2013-02-03 05:58:00,
2013-02-03 02:03:00,74.0,63.2,29.93,ESE,112,5.1,134.3,69,0.00,,---,0.00,VWS V14.01,2013-02-03 06:03:00,
2013-02-03 02:08:00,74.0,63.6,29.93,SSW,202,3.8,134.3,70,0.00,,---,0.00,VWS V14.01,2013-02-03 06:08:00,
2013-02-03 02:13:00,74.0,61.9,29.93,ESE,112,4.9,134.3,66,0.00,,---,0.00,VWS V14.01,2013-02-03 06:13:00,
2013-02-03 02:18:00,74.0,63.2,29.93,ESE,112,5.4,134.3,69,0.00,,---,0.00,VWS V14.01,2013-02-03 06:18:00,
2013-02-03 02:23:00,74.2,63.4,29.92,SE,135,5.8,134.3,69,0.00,,---,0.00,VWS V14.01,2013-02-03 06:23:00,
2013-02-03 02:28:00,74.0,62.4,29.92,ENE,68,4.0,134.3,67,0.00,,---,0.00,VWS V14.01,2013-02-03 06:28:00,
2013-02-03 02:33:00,74.0,62.4,29.92,SSE,158,5.8,134.3,67,0.00,,---,0.00,VWS V14.01,2013-02-03 06:33:00,
2013-02-03 02:38:00,74.2,63.0,29.91,NE,45,4.5,134.3,68,0.00,,---,0.00,VWS V14.01,2013-02-03 06:38:00,
2013-02-03 02:43:00,74.2,63.0,29.91,NNE,22,5.1,134.3,68,0.00,,---,0.00,VWS V14.01,2013-02-03 06:43:00,
2013-02-03 02:48:00,74.2,63.0,29.91,NNW,338,5.8,134.3,68,0.00,,---,0.00,VWS V14.01,2013-02-03 06:48:00,
2013-02-03 02:54:00,74.0,62.4,29.91,ESE,112,3.8,134.3,67,0.00,,---,0.00,VWS V14.01,2013-02-03 06:54:00,
2013-02-03 02:59:00,74.0,62.8,29.90,South,180,4.0,134.3,68,0.00,,---,0.00,VWS V14.01,2013-02-03 06:59:00,
2013-02-03 03:03:00,73.8,62.2,29.91,SE,135,4.0,134.3,67,0.00,,---,0.00,VWS V14.01,2013-02-03 07:03:00,
2013-02-03 03:08:00,73.8,63.0,29.91,ESE,112,4.3,134.3,69,0.00,,---,0.00,VWS V14.01,2013-02-03 07:08:00,
2013-02-03 03:13:00,73.8,62.6,29.91,South,180,4.7,134.3,68,0.00,,---,0.00,VWS V14.01,2013-02-03 07:13:00,
2013-02-03 03:18:00,73.8,62.2,29.90,West,270,4.0,134.3,67,0.00,,---,0.00,VWS V14.01,2013-02-03 07:18:00,
2013-02-03 03:23:00,73.8,62.6,29.91,SE,135,5.4,134.3,68,0.00,,---,0.00,VWS V14.01,2013-02-03 07:23:00,
2013-02-03 03:28:00,73.8,62.6,29.90,NE,45,3.1,134.3,68,0.00,,---,0.00,VWS V14.01,2013-02-03 07:28:00,
2013-02-03 03:33:00,73.8,63.0,29.90,SSW,202,3.4,134.3,69,0.00,,---,0.00,VWS V14.01,2013-02-03 07:33:00,
2013-02-03 03:38:00,73.8,62.6,29.90,East,90,2.0,134.3,68,0.00,,---,0.00,VWS V14.01,2013-02-03 07:38:00,
2013-02-03 03:43:00,73.8,62.6,29.90,ESE,112,4.3,134.3,68,0.00,,---,0.00,VWS V14.01,2013-02-03 07:43:00,
2013-02-03 03:48:00,73.8,62.6,29.90,ESE,112,3.8,134.3,68,0.00,,---,0.00,VWS V14.01,2013-02-03 07:48:00,
2013-02-03 03:53:00,73.8,62.6,29.90,South,180,3.6,134.3,68,0.00,,---,0.00,VWS V14.01,2013-02-03 07:53:00,
2013-02-03 03:58:00,73.8,62.2,29.90,South,180,3.4,134.3,67,0.00,,---,0.00,VWS V14.01,2013-02-03 07:58:00,
2013-02-03 04:03:00,73.8,61.7,29.90,East,90,7.6,134.3,66,0.00,,---,0.00,VWS V14.01,2013-02-03 08:03:00,
2013-02-03 04:08:00,73.8,62.2,29.90,East,90,4.9,134.3,67,0.00,,---,0.00,VWS V14.01,2013-02-03 08:08:00,
2013-02-03 04:13:00,73.8,62.2,29.90,SSE,158,4.5,134.3,67,0.00,,---,0.00,VWS V14.01,2013-02-03 08:13:00,
2013-02-03 04:18:00,73.8,61.7,29.90,East,90,6.7,134.3,66,0.00,,---,0.00,VWS V14.01,2013-02-03 08:18:00,
2013-02-03 04:23:00,73.8,61.3,29.90,North,0,6.3,134.3,65,0.00,,---,0.00,VWS V14.01,2013-02-03 08:23:00,
2013-02-03 04:28:00,73.8,61.3,29.90,NW,315,4.5,134.3,65,0.00,,---,0.00,VWS V14.01,2013-02-03 08:28:00,
2013-02-03 04:33:00,73.8,61.7,29.90,SE,135,6.9,134.3,66,0.00,,---,0.00,VWS V14.01,2013-02-03 08:33:00,
2013-02-03 04:38:00,73.8,61.3,29.90,North,0,5.4,134.3,65,0.00,,---,0.00,VWS V14.01,2013-02-03 08:38:00,
2013-02-03 04:43:00,74.0,61.9,29.90,ENE,68,4.0,134.3,66,0.00,,---,0.00,VWS V14.01,2013-02-03 08:43:00,
2013-02-03 04:48:00,74.0,61.9,29.90,SE,135,6.0,134.3,66,0.00,,---,0.00,VWS V14.01,2013-02-03 08:48:00,
2013-02-03 04:53:00,74.2,62.1,29.90,NE,45,3.4,134.3,66,0.00,,---,0.00,VWS V14.01,2013-02-03 08:53:00,
2013-02-03 04:58:00,74.2,62.1,29.90,East,90,3.4,134.3,66,0.00,,---,0.00,VWS V14.01,2013-02-03 08:58:00,
2013-02-03 05:03:00,74.0,61.5,29.90,NNW,338,3.4,134.3,65,0.00,,---,0.00,VWS V14.01,2013-02-03 09:03:00,
2013-02-03 05:08:00,74.0,61.9,29.90,NNE,22,4.9,134.3,66,0.00,,---,0.00,VWS V14.01,2013-02-03 09:08:00,
2013-02-03 05:13:00,74.0,61.5,29.90,SE,135,6.5,134.3,65,0.00,,---,0.00,VWS V14.01,2013-02-03 09:13:00,
2013-02-03 05:18:00,74.0,61.9,29.90,SSE,158,4.7,134.3,66,0.00,,---,0.00,VWS V14.01,2013-02-03 09:18:00,
2013-02-03 05:23:00,74.0,61.9,29.91,NNE,22,5.6,134.3,66,0.00,,---,0.00,VWS V14.01,2013-02-03 09:23:00,
2013-02-03 05:28:00,74.0,61.9,29.91,SSE,158,3.4,134.3,66,0.00,,---,0.00,VWS V14.01,2013-02-03 09:28:00,
2013-02-03 05:33:00,74.0,62.4,29.91,SE,135,6.3,134.3,67,0.00,,---,0.00,VWS V14.01,2013-02-03 09:33:00,
2013-02-03 05:38:00,74.0,62.8,29.91,SSE,158,4.9,134.3,68,0.00,,---,0.00,VWS V14.01,2013-02-03 09:38:00,
2013-02-03 05:43:00,74.0,62.8,29.91,ESE,112,4.7,134.3,68,0.00,,---,0.00,VWS V14.01,2013-02-03 09:43:00,
2013-02-03 05:48:00,74.2,63.0,29.91,SSE,158,3.1,134.3,68,0.00,,---,0.00,VWS V14.01,2013-02-03 09:48:00,
2013-02-03 05:53:00,74.0,62.8,29.91,South,180,2.7,134.3,68,0.00,,---,0.00,VWS V14.01,2013-02-03 09:53:00,
2013-02-03 05:58:00,74.0,62.4,29.92,NNE,22,4.0,134.3,67,0.00,,---,0.00,VWS V14.01,2013-02-03 09:58:00,
2013-02-03 06:03:00,74.0,61.9,29.92,ESE,112,3.4,134.3,66,0.00,,---,0.00,VWS V14.01,2013-02-03 10:03:00,
2013-02-03 06:08:00,74.2,63.0,29.92,North,0,3.4,134.3,68,0.00,,---,0.00,VWS V14.01,2013-02-03 10:08:00,
2013-02-03 06:13:00,74.2,63.4,29.92,North,0,3.4,134.3,69,0.00,,---,0.00,VWS V14.01,2013-02-03 10:13:00,
2013-02-03 06:18:00,74.2,63.0,29.93,SSW,202,2.5,134.3,68,0.00,,---,0.00,VWS V14.01,2013-02-03 10:18:00,
2013-02-03 06:23:00,74.2,63.4,29.93,ESE,112,3.6,134.3,69,0.00,,---,0.00,VWS V14.01,2013-02-03 10:23:00,
2013-02-03 06:28:00,74.2,63.4,29.93,SE,135,4.3,134.3,69,0.00,,---,0.00,VWS V14.01,2013-02-03 10:28:00,
2013-02-03 06:33:00,74.2,62.5,29.93,SE,135,2.7,134.3,67,0.00,,---,0.00,VWS V14.01,2013-02-03 10:33:00,
2013-02-03 06:38:00,74.2,62.5,29.93,East,90,2.7,134.3,67,0.00,,---,0.00,VWS V14.01,2013-02-03 10:38:00,
2013-02-03 06:43:00,74.2,63.0,29.93,ESE,112,2.5,134.3,68,0.00,,---,0.00,VWS V14.01,2013-02-03 10:43:00,
2013-02-03 06:48:00,74.2,63.4,29.94,SW,225,3.1,134.3,69,0.00,,---,0.00,VWS V14.01,2013-02-03 10:48:00,
2013-02-03 06:53:00,74.0,63.6,29.93,South,180,3.6,134.3,70,0.00,,---,0.00,VWS V14.01,2013-02-03 10:53:00,
2013-02-03 06:58:00,73.8,63.4,29.94,SSE,158,3.4,134.3,70,0.00,,---,0.00,VWS V14.01,2013-02-03 10:58:00,
2013-02-03 07:03:00,73.8,63.0,29.94,SE,135,3.1,134.3,69,0.00,,---,0.00,VWS V14.01,2013-02-03 11:03:00,
2013-02-03 07:08:00,74.0,63.6,29.94,South,180,4.0,134.3,70,0.00,,---,0.00,VWS V14.01,2013-02-03 11:08:00,
2013-02-03 07:13:00,74.2,63.4,29.94,SSE,158,4.3,134.3,69,0.00,,---,0.00,VWS V14.01,2013-02-03 11:13:00,
2013-02-03 07:18:00,74.2,63.4,29.94,NE,45,1.8,134.3,69,0.00,,---,0.00,VWS V14.01,2013-02-03 11:18:00,
2013-02-03 07:23:00,74.2,63.0,29.95,NNE,22,2.7,134.3,68,0.00,,---,0.00,VWS V14.01,2013-02-03 11:23:00,
2013-02-03 07:28:00,74.5,63.7,29.95,ESE,112,3.8,134.3,69,0.00,,---,0.00,VWS V14.01,2013-02-03 11:28:00,
2013-02-03 07:33:00,74.5,63.3,29.95,South,180,3.1,134.3,68,0.00,,---,0.00,VWS V14.01,2013-02-03 11:33:00,
2013-02-03 07:38:00,74.7,63.5,29.95,SSE,158,2.5,134.3,68,0.00,,---,0.00,VWS V14.01,2013-02-03 11:38:00,
2013-02-03 07:43:00,74.9,63.6,29.96,ESE,112,1.8,134.3,68,0.00,,---,0.00,VWS V14.01,2013-02-03 11:43:00,
2013-02-03 07:48:00,74.9,64.1,29.96,WNW,292,3.8,134.3,69,0.00,,---,0.00,VWS V14.01,2013-02-03 11:48:00,
2013-02-03 07:53:00,74.9,64.5,29.96,East,90,2.9,134.3,70,0.00,,---,0.00,VWS V14.01,2013-02-03 11:53:00,
2013-02-03 07:58:00,75.1,64.7,29.96,SE,135,2.2,134.3,70,0.00,,---,0.00,VWS V14.01,2013-02-03 11:58:00,
2013-02-03 08:03:00,75.6,64.7,29.96,NNW,338,1.8,134.3,69,0.00,,---,0.00,VWS V14.01,2013-02-03 12:03:00,
2013-02-03 08:08:00,76.0,64.7,29.97,SSE,158,2.5,134.3,68,0.00,,---,0.00,VWS V14.01,2013-02-03 12:08:00,
2013-02-03 08:14:00,76.3,65.0,29.97,ESE,112,2.9,134.3,68,0.00,,---,0.00,VWS V14.01,2013-02-03 12:14:00,
2013-02-03 08:19:00,77.8,65.5,29.98,ESE,112,1.8,134.3,66,0.00,,---,0.00,VWS V14.01,2013-02-03 12:19:00,
2013-02-03 08:24:00,78.7,65.5,29.97,ENE,68,4.0,134.3,64,0.00,,---,0.00,VWS V14.01,2013-02-03 12:24:00,
2013-02-03 08:29:00,79.6,65.4,29.98,SE,135,2.7,134.3,62,0.00,,---,0.00,VWS V14.01,2013-02-03 12:29:00,
2013-02-03 08:34:00,79.6,65.0,29.98,East,90,2.5,134.3,61,0.00,,---,0.00,VWS V14.01,2013-02-03 12:34:00,
2013-02-03 08:39:00,78.7,64.1,29.98,ESE,112,2.5,134.3,61,0.00,,---,0.00,VWS V14.01,2013-02-03 12:39:00,
2013-02-03 08:44:00,77.8,64.2,29.98,ESE,112,1.8,134.3,63,0.00,,---,0.00,VWS V14.01,2013-02-03 12:44:00,
2013-02-03 08:49:00,77.2,64.1,29.99,East,90,1.8,134.3,64,0.00,,---,0.00,VWS V14.01,2013-02-03 12:49:00,
2013-02-03 08:54:00,76.9,64.7,29.99,WNW,292,4.3,134.3,66,0.00,,---,0.00,VWS V14.01,2013-02-03 12:54:00,
2013-02-03 08:59:00,76.0,64.3,29.99,South,180,3.8,134.3,67,0.00,,---,0.00,VWS V14.01,2013-02-03 12:59:00,
2013-02-03 09:04:00,75.1,64.7,29.99,SSW,202,1.8,134.3,70,0.00,,---,0.00,VWS V14.01,2013-02-03 13:04:00,
2013-02-03 09:09:00,74.9,64.9,30.00,SSE,158,1.3,134.3,71,0.00,,---,0.00,VWS V14.01,2013-02-03 13:09:00,
2013-02-03 09:14:00,74.9,64.9,30.00,SSE,158,0.0,134.3,71,0.00,,---,0.00,VWS V14.01,2013-02-03 13:14:00,
2013-02-03 09:19:00,75.1,65.1,30.00,SE,135,0.4,134.3,71,0.00,,---,0.00,VWS V14.01,2013-02-03 13:19:00,
2013-02-03 09:24:00,75.2,65.2,30.00,SSE,158,1.3,134.3,71,0.00,,---,0.00,VWS V14.01,2013-02-03 13:24:00,
2013-02-03 09:29:00,75.2,65.2,30.00,ENE,68,2.0,134.3,71,0.00,,---,0.00,VWS V14.01,2013-02-03 13:29:00,
2013-02-03 09:34:00,75.6,65.1,29.99,East,90,1.1,134.3,70,0.00,,---,0.00,VWS V14.01,2013-02-03 13:34:00,
2013-02-03 09:39:00,76.1,66.0,30.00,NNE,22,0.0,134.3,71,0.00,,---,0.00,VWS V14.01,2013-02-03 13:39:00,
2013-02-03 09:44:00,76.7,66.2,30.00,NNE,22,0.4,134.3,70,0.00,,---,0.00,VWS V14.01,2013-02-03 13:44:00,
2013-02-03 09:49:00,76.7,65.8,30.00,NNE,22,1.6,134.3,69,0.00,,---,0.00,VWS V14.01,2013-02-03 13:49:00,
2013-02-03 09:54:00,76.1,65.6,30.00,North,0,1.8,134.3,70,0.00,,---,0.00,VWS V14.01,2013-02-03 13:54:00,
2013-02-03 10:00:00,75.4,65.3,30.00,NE,45,1.1,134.3,71,0.00,,---,0.00,VWS V14.01,2013-02-03 14:00:00,
2013-02-03 10:05:00,74.7,65.9,30.01,NNW,338,3.8,134.3,74,0.00,,---,0.00,VWS V14.01,2013-02-03 14:05:00,
2013-02-03 10:10:00,74.2,65.8,30.00,North,0,0.9,134.3,75,0.01,,---,0.01,VWS V14.01,2013-02-03 14:10:00,
2013-02-03 10:15:00,74.2,65.8,30.00,North,0,0.0,134.3,75,0.01,,---,0.01,VWS V14.01,2013-02-03 14:15:00,
2013-02-03 10:20:00,74.9,66.8,30.00,SSE,158,1.1,134.3,76,0.01,,---,0.01,VWS V14.01,2013-02-03 14:20:00,
2013-02-03 10:25:00,75.8,67.3,29.99,SSE,158,2.5,134.3,75,0.01,,---,0.01,VWS V14.01,2013-02-03 14:25:00,
2013-02-03 10:30:00,76.5,67.2,29.99,ESE,112,1.3,134.3,73,0.01,,---,0.01,VWS V14.01,2013-02-03 14:30:00,
2013-02-03 10:35:00,77.0,67.7,29.99,SE,135,0.9,134.3,73,0.01,,---,0.01,VWS V14.01,2013-02-03 14:35:00,
2013-02-03 10:40:00,78.1,67.9,29.99,North,0,1.8,134.3,71,0.01,,---,0.01,VWS V14.01,2013-02-03 14:40:00,
2013-02-03 10:45:00,78.3,66.4,29.99,East,90,2.9,134.3,67,0.01,,---,0.01,VWS V14.01,2013-02-03 14:45:00,
2013-02-03 10:50:00,78.5,66.2,29.99,ESE,112,2.2,134.3,66,0.01,,---,0.01,VWS V14.01,2013-02-03 14:50:00,
2013-02-03 10:55:00,78.5,66.2,29.99,SE,135,1.6,134.3,66,0.01,,---,0.01,VWS V14.01,2013-02-03 14:55:00,
2013-02-03 11:00:00,78.1,66.3,29.98,SE,135,1.3,134.3,67,0.01,,---,0.01,VWS V14.01,2013-02-03 15:00:00,
2013-02-03 11:05:00,78.1,65.4,29.98,North,0,1.8,134.3,65,0.01,,---,0.01,VWS V14.01,2013-02-03 15:05:00,
2013-02-03 11:10:00,78.7,66.0,29.98,WSW,248,0.9,134.3,65,0.00,,---,0.01,VWS V14.01,2013-02-03 15:10:00,
2013-02-03 11:15:00,79.6,65.9,29.98,NNE,22,1.1,134.3,63,0.00,,---,0.01,VWS V14.01,2013-02-03 15:15:00,
2013-02-03 11:20:00,79.9,65.3,29.98,NNE,22,0.9,134.3,61,0.00,,---,0.01,VWS V14.01,2013-02-03 15:20:00,
2013-02-03 11:25:00,80.3,67.5,29.98,North,0,2.9,134.3,65,0.00,,---,0.01,VWS V14.01,2013-02-03 15:25:00,
2013-02-03 11:30:00,80.1,67.3,29.97,SSE,158,1.3,134.3,65,0.00,,---,0.01,VWS V14.01,2013-02-03 15:30:00,
2013-02-03 11:36:00,79.9,67.1,29.97,NNE,22,2.2,134.3,65,0.00,,---,0.01,VWS V14.01,2013-02-03 15:36:00,
2013-02-03 11:41:00,79.7,67.3,29.97,NNE,22,0.7,134.3,66,0.00,,---,0.01,VWS V14.01,2013-02-03 15:41:00,
2013-02-03 11:46:00,79.9,67.5,29.97,North,0,1.3,134.3,66,0.00,,---,0.01,VWS V14.01,2013-02-03 15:46:00,
2013-02-03 11:51:00,80.5,67.7,29.96,North,0,3.1,134.3,65,0.00,,---,0.01,VWS V14.01,2013-02-03 15:51:00,
2013-02-03 11:56:00,80.5,67.7,29.96,North,0,1.1,134.3,65,0.00,,---,0.01,VWS V14.01,2013-02-03 15:56:00,
2013-02-03 12:01:00,80.8,67.9,29.96,NNE,22,2.5,134.3,65,0.00,,---,0.01,VWS V14.01,2013-02-03 16:01:00,
2013-02-03 12:06:00,81.0,67.2,29.95,North,0,4.3,134.3,63,0.00,,---,0.01,VWS V14.01,2013-02-03 16:06:00,
2013-02-03 12:11:00,80.6,66.8,29.95,ENE,68,1.1,134.3,63,0.00,,---,0.01,VWS V14.01,2013-02-03 16:11:00,
2013-02-03 12:16:00,80.5,67.2,29.95,North,0,1.1,134.3,64,0.00,,---,0.01,VWS V14.01,2013-02-03 16:16:00,
2013-02-03 12:21:00,80.5,67.2,29.95,NNW,338,2.2,134.3,64,0.00,,---,0.01,VWS V14.01,2013-02-03 16:21:00,
2013-02-03 12:26:00,80.1,66.8,29.94,SE,135,1.1,134.3,64,0.00,,---,0.01,VWS V14.01,2013-02-03 16:26:00,
2013-02-03 12:31:00,80.1,66.8,29.94,ESE,112,1.1,134.3,64,0.00,,---,0.01,VWS V14.01,2013-02-03 16:31:00,
2013-02-03 12:36:00,80.1,66.4,29.94,NE,45,0.7,134.3,63,0.00,,---,0.01,VWS V14.01,2013-02-03 16:36:00,
2013-02-03 12:41:00,80.1,66.4,29.94,NE,45,1.6,134.3,63,0.00,,---,0.01,VWS V14.01,2013-02-03 16:41:00,
2013-02-03 12:46:00,79.9,65.3,29.94,SE,135,3.4,134.3,61,0.00,,---,0.01,VWS V14.01,2013-02-03 16:46:00,
2013-02-03 12:51:00,80.3,64.7,29.94,ENE,68,1.3,134.3,59,0.00,,---,0.01,VWS V14.01,2013-02-03 16:51:00,
2013-02-03 12:56:00,81.0,65.8,29.94,NNE,22,4.0,134.3,60,0.00,,---,0.01,VWS V14.01,2013-02-03 16:56:00,
2013-02-03 13:01:00,80.8,64.7,29.93,SSE,158,2.9,134.3,58,0.00,,---,0.01,VWS V14.01,2013-02-03 17:01:00,
2013-02-03 13:06:00,80.6,64.0,29.93,SSE,158,3.6,134.3,57,0.00,,---,0.01,VWS V14.01,2013-02-03 17:06:00,
2013-02-03 13:11:00,80.6,64.0,29.92,ENE,68,1.8,134.3,57,0.00,,---,0.01,VWS V14.01,2013-02-03 17:11:00,
2013-02-03 13:17:00,80.6,64.5,29.92,North,0,3.4,134.3,58,0.00,,---,0.01,VWS V14.01,2013-02-03 17:17:00,
2013-02-03 13:22:00,80.8,64.7,29.91,NE,45,0.9,134.3,58,0.00,,---,0.01,VWS V14.01,2013-02-03 17:22:00,
2013-02-03 13:27:00,80.6,64.5,29.91,ENE,68,2.0,134.3,58,0.00,,---,0.01,VWS V14.01,2013-02-03 17:27:00,
2013-02-03 13:32:00,80.6,64.0,29.91,SE,135,4.0,134.3,57,0.00,,---,0.01,VWS V14.01,2013-02-03 17:32:00,
2013-02-03 13:37:00,80.5,64.4,29.91,NE,45,2.5,134.3,58,0.00,,---,0.01,VWS V14.01,2013-02-03 17:37:00,
2013-02-03 13:42:00,80.5,64.4,29.91,SSW,202,2.2,134.3,58,0.00,,---,0.01,VWS V14.01,2013-02-03 17:42:00,
2013-02-03 13:47:00,80.5,64.4,29.91,ESE,112,3.4,134.3,58,0.00,,---,0.01,VWS V14.01,2013-02-03 17:47:00,
2013-02-03 13:52:00,80.5,64.4,29.90,SSW,202,4.0,134.3,58,0.00,,---,0.01,VWS V14.01,2013-02-03 17:52:00,
2013-02-03 13:57:00,80.3,64.2,29.90,SSW,202,2.2,134.3,58,0.00,,---,0.01,VWS V14.01,2013-02-03 17:57:00,
2013-02-03 14:02:00,79.9,64.3,29.90,SSE,158,2.5,134.3,59,0.00,,---,0.01,VWS V14.01,2013-02-03 18:02:00,
2013-02-03 14:07:00,79.9,64.3,29.89,NE,45,2.5,134.3,59,0.00,,---,0.01,VWS V14.01,2013-02-03 18:07:00,
2013-02-03 14:12:00,79.6,64.0,29.89,SE,135,1.8,134.3,59,0.00,,---,0.01,VWS V14.01,2013-02-03 18:12:00,
2013-02-03 14:17:00,79.6,64.5,29.89,SE,135,3.4,134.3,60,0.00,,---,0.01,VWS V14.01,2013-02-03 18:17:00,
2013-02-03 14:22:00,79.6,64.5,29.89,NE,45,1.3,134.3,60,0.00,,---,0.01,VWS V14.01,2013-02-03 18:22:00,
2013-02-03 14:27:00,79.7,64.1,29.89,ESE,112,3.8,134.3,59,0.00,,---,0.01,VWS V14.01,2013-02-03 18:27:00,
2013-02-03 14:32:00,79.7,64.6,29.89,ESE,112,2.0,134.3,60,0.00,,---,0.01,VWS V14.01,2013-02-03 18:32:00,
2013-02-03 14:38:00,79.7,64.6,29.89,ESE,112,2.9,134.3,60,0.00,,---,0.01,VWS V14.01,2013-02-03 18:38:00,
2013-02-03 14:43:00,79.6,65.0,29.88,SE,135,2.5,134.3,61,0.00,,---,0.01,VWS V14.01,2013-02-03 18:43:00,
2013-02-03 14:48:00,79.6,65.0,29.88,NE,45,1.8,134.3,61,0.00,,---,0.01,VWS V14.01,2013-02-03 18:48:00,
2013-02-03 14:53:00,79.6,65.0,29.88,SSW,202,3.1,134.3,61,0.00,,---,0.01,VWS V14.01,2013-02-03 18:53:00,
2013-02-03 14:58:00,79.4,64.8,29.88,SE,135,1.8,134.3,61,0.00,,---,0.01,VWS V14.01,2013-02-03 18:58:00,
2013-02-03 15:03:00,79.4,64.8,29.88,NNE,22,2.5,134.3,61,0.00,,---,0.01,VWS V14.01,2013-02-03 19:03:00,
2013-02-03 15:08:00,79.4,64.3,29.88,ESE,112,3.6,134.3,60,0.00,,---,0.01,VWS V14.01,2013-02-03 19:08:00,
2013-02-03 15:13:00,79.0,65.3,29.88,ESE,112,2.9,134.3,63,0.00,,---,0.01,VWS V14.01,2013-02-03 19:13:00,
2013-02-03 15:18:00,78.8,65.2,29.88,NNE,22,2.0,134.3,63,0.00,,---,0.01,VWS V14.01,2013-02-03 19:18:00,
2013-02-03 15:23:00,78.8,65.2,29.87,ESE,112,3.4,134.3,63,0.00,,---,0.01,VWS V14.01,2013-02-03 19:23:00,
2013-02-03 15:28:00,78.7,65.1,29.87,East,90,2.9,134.3,63,0.00,,---,0.01,VWS V14.01,2013-02-03 19:28:00,
2013-02-03 15:33:00,78.5,65.3,29.87,SE,135,2.0,134.3,64,0.00,,---,0.01,VWS V14.01,2013-02-03 19:33:00,
2013-02-03 15:38:00,78.5,64.9,29.87,ESE,112,3.4,134.3,63,0.00,,---,0.01,VWS V14.01,2013-02-03 19:38:00,
2013-02-03 15:43:00,78.3,65.1,29.87,WSW,248,2.5,134.3,64,0.00,,---,0.01,VWS V14.01,2013-02-03 19:43:00,
2013-02-03 15:49:00,78.3,65.1,29.87,East,90,2.9,134.3,64,0.00,,---,0.01,VWS V14.01,2013-02-03 19:49:00,
2013-02-03 15:54:00,78.1,64.9,29.87,ESE,112,1.6,134.3,64,0.00,,---,0.01,VWS V14.01,2013-02-03 19:54:00,
2013-02-03 15:59:00,77.9,64.8,29.87,East,90,1.8,134.3,64,0.00,,---,0.01,VWS V14.01,2013-02-03 19:59:00,
2013-02-03 16:04:00,77.8,64.7,29.87,SW,225,2.9,134.3,64,0.00,,---,0.01,VWS V14.01,2013-02-03 20:04:00,
2013-02-03 16:09:00,77.6,64.5,29.87,NE,45,2.5,134.3,64,0.00,,---,0.01,VWS V14.01,2013-02-03 20:09:00,
2013-02-03 16:14:00,77.4,64.3,29.87,SSE,158,5.4,134.3,64,0.00,,---,0.01,VWS V14.01,2013-02-03 20:14:00,
2013-02-03 16:19:00,77.0,64.3,29.87,South,180,1.8,134.3,65,0.00,,---,0.01,VWS V14.01,2013-02-03 20:19:00,
2013-02-03 16:24:00,76.9,64.2,29.87,SE,135,2.5,134.3,65,0.00,,---,0.01,VWS V14.01,2013-02-03 20:24:00,
2013-02-03 16:29:00,76.7,64.1,29.87,SE,135,1.8,134.3,65,0.00,,---,0.01,VWS V14.01,2013-02-03 20:29:00,
2013-02-03 16:34:00,76.7,64.5,29.87,NNW,338,1.1,134.3,66,0.00,,---,0.01,VWS V14.01,2013-02-03 20:34:00,
2013-02-03 16:39:00,76.5,64.3,29.87,ESE,112,2.0,134.3,66,0.00,,---,0.01,VWS V14.01,2013-02-03 20:39:00,
2013-02-03 16:44:00,76.3,64.1,29.87,SSE,158,1.8,134.3,66,0.00,,---,0.01,VWS V14.01,2013-02-03 20:44:00,
2013-02-03 16:49:00,76.1,64.4,29.87,SE,135,4.0,134.3,67,0.00,,---,0.01,VWS V14.01,2013-02-03 20:49:00,
2013-02-03 16:54:00,76.0,64.3,29.87,ENE,68,2.5,134.3,67,0.00,,---,0.01,VWS V14.01,2013-02-03 20:54:00,
2013-02-03 16:59:00,76.0,64.3,29.87,NNE,22,2.9,134.3,67,0.00,,---,0.01,VWS V14.01,2013-02-03 20:59:00,
2013-02-03 17:04:00,75.8,64.1,29.87,SE,135,1.1,134.3,67,0.00,,---,0.01,VWS V14.01,2013-02-03 21:04:00,
2013-02-03 17:10:00,75.8,64.1,29.88,SE,135,2.0,134.3,67,0.00,,---,0.01,VWS V14.01,2013-02-03 21:10:00,
2013-02-03 17:15:00,75.6,63.9,29.88,SE,135,2.0,134.3,67,0.00,,---,0.01,VWS V14.01,2013-02-03 21:15:00,
2013-02-03 17:20:00,75.4,64.1,29.88,NNE,22,1.8,134.3,68,0.00,,---,0.01,VWS V14.01,2013-02-03 21:20:00,
2013-02-03 17:25:00,75.4,64.1,29.88,SE,135,2.9,134.3,68,0.00,,---,0.01,VWS V14.01,2013-02-03 21:25:00,
2013-02-03 17:30:00,75.2,63.9,29.88,ESE,112,2.5,134.3,68,0.00,,---,0.01,VWS V14.01,2013-02-03 21:30:00,
2013-02-03 17:35:00,75.2,63.9,29.89,SSW,202,1.8,134.3,68,0.00,,---,0.01,VWS V14.01,2013-02-03 21:35:00,
2013-02-03 17:40:00,75.2,63.9,29.89,ESE,112,2.5,134.3,68,0.00,,---,0.01,VWS V14.01,2013-02-03 21:40:00,
2013-02-03 17:45:00,75.2,64.3,29.89,SSE,158,1.6,134.3,69,0.00,,---,0.01,VWS V14.01,2013-02-03 21:45:00,
2013-02-03 17:50:00,75.1,63.8,29.89,ENE,68,2.0,134.3,68,0.00,,---,0.01,VWS V14.01,2013-02-03 21:50:00,
2013-02-03 17:55:00,74.9,63.6,29.89,SE,135,2.0,134.3,68,0.00,,---,0.01,VWS V14.01,2013-02-03 21:55:00,
2013-02-03 18:00:00,74.9,63.6,29.89,East,90,1.6,134.3,68,0.00,,---,0.01,VWS V14.01,2013-02-03 22:00:00,
2013-02-03 18:05:00,74.7,63.0,29.89,SSE,158,2.0,134.3,67,0.00,,---,0.01,VWS V14.01,2013-02-03 22:05:00,
2013-02-03 18:10:00,74.7,63.0,29.89,ESE,112,1.8,134.3,67,0.00,,---,0.01,VWS V14.01,2013-02-03 22:10:00,
2013-02-03 18:15:00,74.5,62.8,29.89,ESE,112,2.7,134.3,67,0.00,,---,0.01,VWS V14.01,2013-02-03 22:15:00,
2013-02-03 18:20:00,74.5,62.8,29.90,SE,135,1.3,134.3,67,0.00,,---,0.01,VWS V14.01,2013-02-03 22:20:00,
2013-02-03 18:25:00,74.5,62.8,29.90,ENE,68,3.1,134.3,67,0.00,,---,0.01,VWS V14.01,2013-02-03 22:25:00,
2013-02-03 18:30:00,74.3,62.6,29.90,ENE,68,1.3,134.3,67,0.00,,---,0.01,VWS V14.01,2013-02-03 22:30:00,
2013-02-03 18:36:00,74.3,62.6,29.90,SE,135,2.5,134.3,67,0.00,,---,0.01,VWS V14.01,2013-02-03 22:36:00,
2013-02-03 18:41:00,74.3,63.1,29.90,ESE,112,1.1,134.3,68,0.00,,---,0.01,VWS V14.01,2013-02-03 22:41:00,
2013-02-03 18:46:00,74.2,63.0,29.91,ESE,112,1.1,134.3,68,0.00,,---,0.01,VWS V14.01,2013-02-03 22:46:00,
2013-02-03 18:51:00,74.2,63.4,29.91,SE,135,2.5,134.3,69,0.00,,---,0.01,VWS V14.01,2013-02-03 22:51:00,
2013-02-03 18:56:00,74.0,63.2,29.91,SE,135,1.3,134.3,69,0.00,,---,0.01,VWS V14.01,2013-02-03 22:56:00,
2013-02-03 19:01:00,74.0,63.2,29.91,West,270,3.6,134.3,69,0.00,,---,0.01,VWS V14.01,2013-02-03 23:01:00,
2013-02-03 19:06:00,74.0,62.8,29.91,SSW,202,2.2,134.3,68,0.00,,---,0.01,VWS V14.01,2013-02-03 23:06:00,
2013-02-03 19:11:00,74.0,62.8,29.91,SE,135,1.8,134.3,68,0.00,,---,0.01,VWS V14.01,2013-02-03 23:11:00,
2013-02-03 19:16:00,74.0,62.8,29.91,SSE,158,2.5,134.3,68,0.00,,---,0.01,VWS V14.01,2013-02-03 23:16:00,
2013-02-03 19:21:00,73.8,62.6,29.91,SSE,158,2.7,134.3,68,0.00,,---,0.01,VWS V14.01,2013-02-03 23:21:00,
2013-02-03 19:27:00,74.0,63.2,29.91,SE,135,1.8,134.3,69,0.00,,---,0.01,VWS V14.01,2013-02-03 23:27:00,
2013-02-03 19:32:00,73.8,63.0,29.92,SE,135,0.9,134.3,69,0.00,,---,0.01,VWS V14.01,2013-02-03 23:32:00,
2013-02-03 19:37:00,73.8,63.0,29.92,SE,135,1.8,134.3,69,0.00,,---,0.01,VWS V14.01,2013-02-03 23:37:00,
2013-02-03 19:42:00,73.8,62.6,29.92,SE,135,1.8,134.3,68,0.00,,---,0.01,VWS V14.01,2013-02-03 23:42:00,
2013-02-03 19:47:00,73.8,62.6,29.92,SE,135,2.5,134.3,68,0.00,,---,0.01,VWS V14.01,2013-02-03 23:47:00,
2013-02-03 19:52:00,73.8,62.2,29.92,ENE,68,2.7,134.3,67,0.00,,---,0.01,VWS V14.01,2013-02-03 23:52:00,
2013-02-03 19:57:00,73.8,62.2,29.93,East,90,0.9,134.3,67,0.00,,---,0.01,VWS V14.01,2013-02-03 23:57:00,
2013-02-03 20:02:00,73.8,62.6,29.93,SSW,202,1.8,134.3,68,0.00,,---,0.01,VWS V14.01,2013-02-04 00:02:00,
2013-02-03 20:07:00,73.8,62.6,29.93,ESE,112,1.6,134.3,68,0.00,,---,0.01,VWS V14.01,2013-02-04 00:07:00,
2013-02-03 20:12:00,73.8,62.6,29.93,ESE,112,1.6,134.3,68,0.00,,---,0.01,VWS V14.01,2013-02-04 00:12:00,
2013-02-03 20:17:00,73.8,63.0,29.93,SE,135,1.8,134.3,69,0.00,,---,0.01,VWS V14.01,2013-02-04 00:17:00,
2013-02-03 20:22:00,73.8,63.0,29.93,SE,135,1.8,134.3,69,0.00,,---,0.01,VWS V14.01,2013-02-04 00:22:00,
2013-02-03 20:27:00,73.8,63.0,29.93,SE,135,0.2,134.3,69,0.00,,---,0.01,VWS V14.01,2013-02-04 00:27:00,
2013-02-03 20:33:00,73.8,63.0,29.94,SE,135,1.1,134.3,69,0.00,,---,0.01,VWS V14.01,2013-02-04 00:33:00,
2013-02-03 20:38:00,73.6,62.8,29.94,SSE,158,2.2,134.3,69,0.00,,---,0.01,VWS V14.01,2013-02-04 00:38:00,
2013-02-03 20:43:00,73.6,62.8,29.94,SE,135,0.9,134.3,69,0.00,,---,0.01,VWS V14.01,2013-02-04 00:43:00,
2013-02-03 20:48:00,73.6,63.2,29.94,South,180,1.1,134.3,70,0.00,,---,0.01,VWS V14.01,2013-02-04 00:48:00,
2013-02-03 20:53:00,73.6,63.2,29.94,SSE,158,2.2,134.3,70,0.00,,---,0.01,VWS V14.01,2013-02-04 00:53:00,
2013-02-03 20:58:00,73.6,63.2,29.94,ESE,112,1.3,134.3,70,0.00,,---,0.01,VWS V14.01,2013-02-04 00:58:00,
2013-02-03 21:03:00,73.4,62.6,29.94,SSE,158,1.8,134.3,69,0.00,,---,0.01,VWS V14.01,2013-02-04 01:03:00,
2013-02-03 21:08:00,73.4,62.6,29.94,ESE,112,0.7,134.3,69,0.00,,---,0.01,VWS V14.01,2013-02-04 01:08:00,
2013-02-03 21:13:00,73.4,62.6,29.94,SSE,158,2.9,134.3,69,0.00,,---,0.01,VWS V14.01,2013-02-04 01:13:00,
2013-02-03 21:18:00,73.4,62.6,29.94,ENE,68,1.3,134.3,69,0.00,,---,0.01,VWS V14.01,2013-02-04 01:18:00,
2013-02-03 21:23:00,73.4,62.6,29.94,SE,135,1.1,134.3,69,0.00,,---,0.01,VWS V14.01,2013-02-04 01:23:00,
2013-02-03 21:28:00,73.4,63.0,29.94,SE,135,0.9,134.3,70,0.00,,---,0.01,VWS V14.01,2013-02-04 01:28:00,
2013-02-03 21:33:00,73.4,63.4,29.94,SE,135,2.0,134.3,71,0.00,,---,0.01,VWS V14.01,2013-02-04 01:33:00,
2013-02-03 21:39:00,73.4,63.4,29.94,SSE,158,1.8,134.3,71,0.00,,---,0.01,VWS V14.01,2013-02-04 01:39:00,
2013-02-03 21:44:00,73.3,63.3,29.94,SSE,158,1.3,134.3,71,0.00,,---,0.01,VWS V14.01,2013-02-04 01:44:00,
2013-02-03 21:49:00,73.3,63.3,29.94,SE,135,1.3,134.3,71,0.00,,---,0.01,VWS V14.01,2013-02-04 01:49:00,
2013-02-03 21:54:00,73.3,63.3,29.94,SE,135,1.1,134.3,71,0.00,,---,0.01,VWS V14.01,2013-02-04 01:54:00,
2013-02-03 21:59:00,73.3,63.3,29.95,SE,135,1.8,134.3,71,0.00,,---,0.01,VWS V14.01,2013-02-04 01:59:00,
2013-02-03 22:04:00,73.1,63.2,29.95,SSE,158,1.8,134.3,71,0.00,,---,0.01,VWS V14.01,2013-02-04 02:04:00,
2013-02-03 22:09:00,73.1,63.2,29.95,SE,135,1.3,134.3,71,0.00,,---,0.01,VWS V14.01,2013-02-04 02:09:00,
2013-02-03 22:14:00,73.3,63.3,29.95,ESE,112,1.1,134.3,71,0.00,,---,0.01,VWS V14.01,2013-02-04 02:14:00,
2013-02-03 22:19:00,73.3,63.3,29.95,ESE,112,1.1,134.3,71,0.00,,---,0.01,VWS V14.01,2013-02-04 02:19:00,
2013-02-03 22:24:00,73.3,63.3,29.95,SSE,158,1.1,134.3,71,0.00,,---,0.01,VWS V14.01,2013-02-04 02:24:00,
2013-02-03 22:29:00,73.3,63.7,29.95,ESE,112,2.0,134.3,72,0.00,,---,0.01,VWS V14.01,2013-02-04 02:29:00,
2013-02-03 22:34:00,73.4,63.8,29.95,SSE,158,0.9,134.3,72,0.00,,---,0.01,VWS V14.01,2013-02-04 02:34:00,
2013-02-03 22:39:00,73.4,64.2,29.95,NE,45,1.6,134.3,73,0.00,,---,0.01,VWS V14.01,2013-02-04 02:39:00,
2013-02-03 22:45:00,73.4,64.2,29.95,SE,135,1.8,134.3,73,0.00,,---,0.01,VWS V14.01,2013-02-04 02:45:00,
2013-02-03 22:50:00,73.4,64.2,29.95,SE,135,0.9,134.3,73,0.00,,---,0.01,VWS V14.01,2013-02-04 02:50:00,
2013-02-03 22:55:00,73.4,64.6,29.95,SSW,202,1.1,134.3,74,0.00,,---,0.01,VWS V14.01,2013-02-04 02:55:00,
2013-02-03 23:00:00,73.3,64.5,29.95,SSE,158,1.6,134.3,74,0.00,,---,0.01,VWS V14.01,2013-02-04 03:00:00,
2013-02-03 23:05:00,73.3,64.5,29.95,ESE,112,0.7,134.3,74,0.00,,---,0.01,VWS V14.01,2013-02-04 03:05:00,
2013-02-03 23:10:00,73.4,64.6,29.95,SSE,158,1.1,134.3,74,0.00,,---,0.01,VWS V14.01,2013-02-04 03:10:00,
2013-02-03 23:15:00,73.4,64.2,29.94,SSE,158,0.9,134.3,73,0.00,,---,0.01,VWS V14.01,2013-02-04 03:15:00,
2013-02-03 23:20:00,73.4,64.2,29.95,ENE,68,2.9,134.3,73,0.00,,---,0.01,VWS V14.01,2013-02-04 03:20:00,
2013-02-03 23:25:00,73.4,64.2,29.94,SSE,158,2.5,134.3,73,0.00,,---,0.01,VWS V14.01,2013-02-04 03:25:00,
2013-02-03 23:30:00,73.4,64.6,29.94,SE,135,1.1,134.3,74,0.00,,---,0.01,VWS V14.01,2013-02-04 03:30:00,
2013-02-03 23:35:00,73.4,64.6,29.94,ESE,112,1.8,134.3,74,0.00,,---,0.01,VWS V14.01,2013-02-04 03:35:00,
2013-02-03 23:40:00,73.4,64.2,29.94,SSE,158,0.2,134.3,73,0.00,,---,0.01,VWS V14.01,2013-02-04 03:40:00,
2013-02-03 23:46:00,73.3,64.1,29.94,SE,135,1.3,134.3,73,0.00,,---,0.01,VWS V14.01,2013-02-04 03:46:00,
2013-02-03 23:51:00,73.3,64.1,29.94,SSE,158,1.1,134.3,73,0.00,,---,0.01,VWS V14.01,2013-02-04 03:51:00,
2013-02-03 23:56:00,73.1,63.9,29.94,ESE,112,1.6,134.3,73,0.00,,---,0.01,VWS V14.01,2013-02-04 03:56:00,